Location: Orson Pratt Observatory
(40.2472°N, 111.6506°W)
Time: 06:04:07
(UTC-06:00)

OTV 5 (USA 277) - Visible Passes

Search period start: 25 June 2018 00:00
Search period end: 05 July 2018 00:00
Orbit: 313 x 320 km, 54.5° (Epoch: 21 June)

Date Brightness Start Highest point End Pass type
(mag) Time Alt. Az. Time Alt. Az. Time Alt. Az.
26 Jun ? 00:13:00 10° N 00:14:14 13° NNE 00:14:14 13° NNE visible
27 Jun ? 00:26:41 10° NNW 00:27:38 17° N 00:27:38 17° N visible
28 Jun ? 00:40:50 10° NW 00:41:05 12° NW 00:41:05 12° NW visible
28 Jun ? 23:21:33 10° NNW 23:23:28 17° NNE 23:23:45 17° NE visible
29 Jun ? 23:35:29 10° NW 23:37:18 30° N 23:37:18 30° N visible
30 Jun ? 22:16:34 10° N 22:17:54 13° NNE 22:19:13 10° ENE visible
30 Jun ? 23:49:48 10° NW 23:50:54 21° WNW 23:50:54 21° WNW visible
01 Jul ? 22:30:15 10° NNW 22:32:33 24° NE 22:33:42 18° ENE visible
02 Jul ? 22:44:22 10° NW 22:47:03 67° NE 22:47:25 56° E visible
03 Jul ? 22:58:54 10° WNW 23:01:10 34° WSW 23:01:10 34° WSW visible
04 Jul ? 21:39:02 10° NNW 21:41:35 37° NE 21:44:07 10° ESE visible
04 Jul ? 23:14:23 10° W 23:15:00 12° WSW 23:15:00 12° WSW visible
